Theta_e
337 337 334 332 333 331 335 335 333 333 333 333 334 333 333 332 333 335 334 335 335 334 332 331 333 332 332 331 329 329 329 327 327
336 336 334 332 331 333 332 334 333 332 332 333 335 332 331 329 328 331 333 335 334 333 333 332 331 330 330 329 329 327 327 325 326
334 335 336 333 331 331 334 332 331 332 332 334 331 330 328 326 324 325 330 332 332 330 331 331 330 328 328 328 326 326 327 326 325
334 335 335 335 332 330 332 331 330 330 330 331 330 329 327 325 323 324 326 328 330 329 331 330 328 329 329 328 327 328 325 322 322
332 333 333 333 333 331 330 331 330 330 329 330 329 328 327 325 323 324 324 327 331 330 331 330 329 329 328 327 326 323 319 322 320
332 333 333 333 332 333 331 329 328 329 329 329 329 329 327 325 325 324 324 326 329 328 329 330 330 328 328 324 324 322 322 322 323
331 332 332 333 332 333 332 331 329 326 325 328 330 330 329 329 327 324 326 328 329 331 330 329 329 327 325 323 322 320 322 322 319
328 330 331 331 331 332 333 331 330 327 325 324 326 330 329 328 327 326 326 326 329 329 330 329 328 326 323 323 323 322 322 319 317
320 325 328 329 330 332 333 332 329 327 326 326 327 328 327 328 327 327 326 325 329 328 330 329 327 326 324 324 322 321 318 316 315
322 319 321 327 330 331 331 331 330 329 328 329 328 327 327 327 328 328 327 325 325 328 328 329 326 325 324 323 321 317 316 315 314
322 321 322 322 326 329 322 318 318 324 322 324 326 327 325 325 328 328 327 325 325 325 327 328 326 324 323 322 319 317 315 315 314
316 317 319 320 325 326 324 324 325 320 318 318 319 324 326 326 326 327 327 326 326 323 326 327 326 325 323 321 318 317 315 315 314
313 314 316 318 319 322 323 324 323 319 317 318 321 322 324 326 327 326 327 326 326 325 323 326 326 325 323 322 319 317 316 314 314
308 311 313 314 318 320 321 323 322 322 321 321 322 323 325 326 327 326 326 326 325 325 324 324 326 324 324 322 320 317 315 314 313
306 307 310 311 314 318 321 320 321 322 321 321 321 321 322 324 325 326 325 325 325 324 325 324 325 323 323 322 321 318 316 314 313
304 305 307 309 311 314 317 318 318 319 321 321 321 321 321 322 323 323 324 325 325 325 325 324 325 323 323 321 321 319 316 314 313
302 304 305 306 308 312 314 316 317 318 319 319 318 319 319 320 322 322 322 323 324 325 324 324 324 323 322 321 320 319 316 314 313
299 301 303 304 305 308 311 314 316 317 317 319 319 319 320 315 316 317 319 322 323 324 324 324 324 323 322 321 320 318 316 315 314
298 299 300 302 303 304 306 311 314 315 317 316 317 318 317 318 319 314 316 318 321 322 323 323 324 323 322 321 318 318 316 316 315
294 297 299 300 300 302 303 306 310 314 316 316 316 316 316 316 315 319 315 315 318 320 321 323 323 323 323 321 318 317 315 316 316
Wind_Speed
6 7 5 6 6 8 9 8 10 12 14 15 16 16 16 15 13 13 13 15 14 15 14 13 14 12 12 13 13 13 12 10 11
8 7 7 6 6 6 10 10 11 13 15 16 18 18 16 13 11 10 11 11 12 11 12 12 12 11 10 10 12 13 12 11 12
8 9 8 8 8 6 10 11 12 14 15 17 16 17 14 13 11 10 10 10 11 9 9 11 11 11 10 12 13 12 14 14 12
9 10 11 11 10 9 10 12 12 14 15 15 16 15 14 13 12 10 11 12 11 10 11 12 11 12 15 15 15 16 14 10 10
10 11 12 12 13 12 11 10 11 13 14 15 17 16 14 13 11 9 10 12 11 14 15 14 15 15 16 16 14 11 9 10 10
12 11 12 13 14 14 14 16 14 11 14 14 17 17 16 14 12 11 9 11 13 15 18 16 17 18 18 16 13 12 10 12 14
13 13 12 13 15 16 16 17 18 19 16 12 16 18 16 15 16 13 12 10 13 15 18 20 19 18 16 13 15 10 12 15 13
9 8 9 12 15 19 17 18 20 22 21 17 22 20 17 17 17 14 15 13 14 15 18 21 20 18 16 16 15 16 15 13 9
12 7 14 19 19 17 21 21 18 20 20 22 22 20 19 20 19 17 18 15 17 18 20 19 19 19 19 19 18 16 12 11 11
13 12 9 10 11 14 19 17 18 20 18 18 20 21 21 21 21 19 19 17 16 20 20 22 20 18 21 21 20 17 14 13 13
12 13 13 8 8 9 15 16 8 8 4 12 18 22 22 22 24 23 20 19 18 16 22 24 22 21 20 20 18 19 18 17 15
13 13 13 11 5 10 12 7 15 7 6 15 20 23 24 27 28 26 24 23 22 18 21 23 23 22 21 20 18 19 20 19 17
14 14 12 10 9 13 16 17 15 19 23 18 26 25 27 30 27 25 26 26 24 23 21 25 25 24 23 21 20 21 20 19 18
13 13 13 11 9 11 16 16 13 15 19 22 24 22 19 24 25 29 29 29 28 26 26 24 29 28 24 23 22 22 21 20 19
14 13 12 12 11 10 13 16 15 18 19 24 26 25 24 19 23 24 25 29 29 27 29 26 31 30 28 26 24 23 22 21 19
16 15 14 12 12 9 12 17 20 17 19 18 15 22 23 23 22 19 25 28 30 28 30 30 33 32 30 29 27 25 24 23 21
20 17 16 13 13 11 10 13 16 14 16 6 3 2 4 16 21 22 26 29 29 29 28 34 36 36 35 33 31 27 26 24 22
22 20 16 14 13 11 10 11 15 14 13 17 8 2 2 2 6 14 20 22 26 28 28 34 40 40 38 37 34 31 29 26 24
19 20 22 16 14 13 11 9 11 15 13 13 19 13 4 2 2 3 13 19 20 26 29 34 42 43 40 40 38 36 32 28 26
21 19 18 18 16 16 14 13 10 12 15 16 9 16 13 10 4 5 4 14 19 21 25 34 42 44 44 46 42 40 35 29 26
Wind_Direction
211 212 216 215 216 220 218 228 194 178 168 160 154 148 143 139 134 128 131 126 128 122 124 129 120 119 119 117 120 117 109 110 114
237 231 230 233 235 220 203 198 192 176 168 161 155 153 149 146 142 139 142 139 135 131 131 131 131 133 131 127 125 119 123 131 120
249 245 242 236 231 216 199 194 189 182 176 172 166 159 160 156 150 153 161 166 159 159 153 143 140 138 136 131 130 133 126 117 115
263 258 251 241 236 225 217 201 196 195 186 178 175 174 171 168 165 170 174 174 174 176 167 155 146 144 136 123 119 119 114 131 122
259 263 256 247 241 233 220 211 202 201 200 192 186 186 182 184 187 198 194 186 192 179 169 161 149 140 132 126 119 117 132 126 137
263 256 258 260 249 242 222 214 198 212 207 206 195 188 191 197 209 223 201 209 202 177 156 156 153 143 137 134 128 124 142 143 129
279 257 258 262 258 246 232 221 205 204 212 215 207 198 204 216 217 218 188 181 170 159 155 149 151 150 146 144 142 143 149 126 122
307 300 272 270 264 248 226 219 213 211 205 196 224 214 215 218 221 216 191 195 189 175 173 168 168 165 159 150 146 149 137 130 154
7 340 284 280 266 259 235 216 207 208 214 210 212 220 214 219 222 224 200 198 195 191 185 180 171 164 158 154 152 155 157 159 160
357 353 333 331 283 260 235 207 201 195 202 207 216 221 222 221 222 222 214 210 210 204 197 178 177 176 166 164 163 168 173 168 163
353 354 351 331 317 245 131 103 69 91 151 235 225 229 228 227 228 221 220 220 217 215 196 184 183 180 176 172 171 170 167 167 166
354 351 345 340 301 201 197 264 271 252 220 207 235 237 236 229 223 227 222 224 219 220 212 193 187 185 180 178 176 171 168 169 171
347 342 341 332 307 280 283 281 238 214 215 209 233 240 245 235 234 228 229 230 228 220 222 210 191 186 184 183 179 176 173 175 175
347 338 335 332 299 277 277 270 234 218 227 224 239 245 255 251 237 235 235 231 233 227 224 218 199 190 184 187 184 182 178 179 180
346 337 333 325 315 288 275 258 247 239 235 253 253 257 252 255 251 249 246 246 236 234 228 218 205 194 189 186 189 187 183 182 184
347 341 336 328 319 297 287 271 270 259 250 247 252 252 249 251 253 255 255 252 246 238 232 220 211 197 198 190 191 188 187 182 187
349 340 336 333 324 309 289 286 263 261 252 208 236 251 220 242 250 255 250 251 250 244 233 222 212 203 199 199 195 190 189 186 188
355 345 328 326 326 321 306 291 272 246 248 233 222 191 228 358 255 249 242 237 241 242 236 226 214 202 200 200 197 192 190 190 190
344 342 345 321 316 313 312 295 289 265 238 241 235 234 179 193 263 264 255 238 225 233 225 222 212 208 204 203 198 197 193 192 192
337 337 331 331 314 298 297 299 296 272 247 232 229 238 238 232 229 273 252 236 233 223 220 218 211 213 210 208 202 198 197 192 194